�������l�o���
Date,Time,MP-1(��Sv/h),MP-2(��Sv/h),MP-3(��Sv/h),MP-4(��Sv/h),MP-5(��Sv/h),MP-6(��Sv/h),MP-7(��Sv/h),MP-8(��Sv/h),����,����(m/s),���J
2019/04/16,00:00,0.754,1.104,0.762,1.406,1.020,0.435,0.770,0.729,��,1.7,��
2019/04/16,00:10,0.755,1.104,0.762,1.406,1.021,0.436,0.768,0.729,��,6.1,��
2019/04/16,00:20,0.755,1.104,0.763,1.408,1.024,0.435,0.768,0.728,��,5.2,��
2019/04/16,00:30,0.755,1.106,0.762,1.408,1.024,0.436,0.768,0.729,���k��,4.0,��
2019/04/16,00:40,0.754,1.104,0.761,1.405,1.024,0.435,0.771,0.727,���k��,4.8,��
2019/04/16,00:50,0.753,1.107,0.761,1.407,1.023,0.435,0.769,0.729,��,4.8,��
2019/04/16,01:00,0.754,1.101,0.763,1.407,1.024,0.436,0.767,0.729,��,3.0,��
2019/04/16,01:10,0.754,1.103,0.763,1.406,1.024,0.437,0.769,0.729,���k��,4.4,��
2019/04/16,01:20,0.754,1.100,0.761,1.406,1.023,0.435,0.768,0.728,���k��,4.9,��
2019/04/16,01:30,0.754,1.102,0.760,1.405,1.021,0.434,0.769,0.729,���k��,5.7,��
2019/04/16,01:40,0.755,1.102,0.762,1.405,1.024,0.436,0.769,0.730,���k��,6.7,��
2019/04/16,01:50,0.755,1.104,0.761,1.407,1.023,0.435,0.769,0.729,���k��,6.1,��
2019/04/16,02:00,0.753,1.103,0.761,1.404,1.023,0.434,0.767,0.728,���k��,4.9,��
2019/04/16,02:10,0.755,1.102,0.762,1.405,1.022,0.434,0.767,0.729,���k��,6.0,��
2019/04/16,02:20,0.755,1.103,0.760,1.406,1.020,0.436,0.769,0.731,���k��,6.9,��
2019/04/16,02:30,0.754,1.101,0.760,1.407,1.022,0.436,0.767,0.728,�k��,7.3,��
2019/04/16,02:40,0.755,1.103,0.760,1.409,1.023,0.435,0.769,0.728,�k��,8.0,��
2019/04/16,02:50,0.753,1.103,0.760,1.408,1.022,0.434,0.769,0.729,���k��,7.4,��
2019/04/16,03:00,0.754,1.103,0.760,1.406,1.023,0.435,0.769,0.729,���k��,8.6,��
2019/04/16,03:10,0.754,1.104,0.761,1.408,1.022,0.434,0.770,0.729,�k��,7.1,��
2019/04/16,03:20,0.755,1.103,0.761,1.408,1.021,0.434,0.768,0.729,�k��,7.6,��
2019/04/16,03:30,0.754,1.104,0.761,1.406,1.021,0.434,0.770,0.727,�k��,8.6,��
2019/04/16,03:40,0.753,1.105,0.761,1.406,1.022,0.434,0.769,0.728,���k��,10.8,��
2019/04/16,03:50,0.754,1.105,0.762,1.407,1.023,0.435,0.767,0.728,�k��,12.4,��
2019/04/16,04:00,0.754,1.103,0.763,1.409,1.023,0.435,0.767,0.728,�k��,11.9,��
2019/04/16,04:10,0.755,1.107,0.761,1.410,1.021,0.434,0.767,0.727,�k��,12.4,��
2019/04/16,04:20,0.754,1.106,0.762,1.407,1.021,0.434,0.765,0.728,�k��,11.0,��
2019/04/16,04:30,0.754,1.104,0.759,1.409,1.022,0.434,0.766,0.727,�k��,9.0,��
2019/04/16,04:40,0.753,1.105,0.761,1.410,1.021,0.434,0.767,0.727,�k��,5.8,��
2019/04/16,04:50,0.753,1.106,0.761,1.407,1.025,0.435,0.768,0.727,�k��,2.0,��
2019/04/16,05:00,0.755,1.105,0.762,1.410,1.021,0.434,0.768,0.727,�k,1.2,��
2019/04/16,05:10,0.753,1.105,0.762,1.406,1.023,0.436,0.769,0.727,�k,1.2,��
2019/04/16,05:20,0.755,1.105,0.760,1.406,1.021,0.435,0.770,0.728,�k,2.5,��
2019/04/16,05:30,0.753,1.105,0.762,1.405,1.024,0.435,0.769,0.727,�k�k��,3.8,��
2019/04/16,05:40,0.756,1.102,0.759,1.405,1.021,0.434,0.768,0.728,�k,3.5,��
2019/04/16,05:50,0.754,1.104,0.763,1.405,1.023,0.434,0.769,0.728,�k�k��,3.2,��
2019/04/16,06:00,0.753,1.106,0.760,1.407,1.021,0.435,0.769,0.727,�k��,3.8,��
2019/04/16,06:10,0.754,1.104,0.760,1.408,1.021,0.433,0.767,0.729,�k��,4.9,��
2019/04/16,06:20,0.752,1.108,0.760,1.410,1.021,0.433,0.770,0.727,�k��,5.0,��
2019/04/16,06:30,0.752,1.106,0.762,1.407,1.022,0.436,0.768,0.729,�k��,2.8,��
2019/04/16,06:40,0.755,1.105,0.761,1.405,1.021,0.435,0.770,0.729,���k��,3.6,��
2019/04/16,06:50,0.754,1.104,0.761,1.408,1.022,0.435,0.768,0.729,���k��,5.9,��
2019/04/16,07:00,0.756,1.105,0.762,1.407,1.021,0.435,0.771,0.730,���k��,3.4,��
2019/04/16,07:10,0.755,1.104,0.760,1.411,1.024,0.436,0.769,0.730,���k��,2.6,��
2019/04/16,07:20,0.753,1.106,0.761,1.407,1.020,0.435,0.770,0.730,���k��,4.7,��
2019/04/16,07:30,0.753,1.105,0.761,1.409,1.023,0.434,0.768,0.729,���k��,4.7,��
2019/04/16,07:40,0.755,1.105,0.762,1.411,1.024,0.433,0.770,0.730,�k��,4.9,��
2019/04/16,07:50,0.757,1.104,0.760,1.410,1.026,0.432,0.769,0.728,���k��,3.6,��
2019/04/16,08:00,0.758,1.103,0.761,1.409,1.023,0.434,0.769,0.729,��,4.2,��
2019/04/16,08:10,0.756,1.105,0.764,1.407,1.024,0.434,0.767,0.731,���k��,4.5,��
2019/04/16,08:20,0.757,1.105,0.761,1.412,1.025,0.433,0.768,0.731,�k��,9.6,��
2019/04/16,08:30,0.759,1.106,0.764,1.409,1.025,0.434,0.768,0.730,���k��,9.7,��
2019/04/16,08:40,0.757,1.104,0.763,1.411,1.025,0.435,0.769,0.729,�k��,9.4,��
2019/04/16,08:50,0.757,1.106,0.762,1.410,1.027,0.433,0.770,0.730,�k�k��,6.4,��
2019/04/16,09:00,0.758,1.102,0.762,1.413,1.024,0.435,0.769,0.729,�k�k��,7.7,��
2019/04/16,09:10,0.757,1.104,0.762,1.410,1.024,0.435,0.769,0.728,�k��,8.5,��
2019/04/16,09:20,0.758,1.098,0.761,1.407,1.028,0.435,0.770,0.727,�k��,7.0,��
2019/04/16,09:30,0.757,1.104,0.763,1.409,1.026,0.435,0.769,0.728,�k��,6.2,��
2019/04/16,09:40,0.758,1.103,0.765,1.410,1.026,0.436,0.770,0.727,�k�k��,4.4,��
2019/04/16,09:50,0.755,1.104,0.764,1.408,1.026,0.436,0.771,0.728,�k�k��,5.2,��
2019/04/16,10:00,0.758,1.105,0.763,1.409,1.025,0.434,0.769,0.727,�k��,5.0,��
2019/04/16,10:10,0.757,1.105,0.763,1.410,1.025,0.435,0.771,0.727,�k��,4.2,��
2019/04/16,10:20,0.758,1.101,0.765,1.411,1.026,0.434,0.771,0.729,�쐼,3.7,��
2019/04/16,10:30,0.756,1.102,0.764,1.409,1.027,0.433,0.768,0.727,�쓌,6.5,��
2019/04/16,10:40,0.758,1.107,0.763,1.411,1.026,0.432,0.770,0.728,�쓌,6.7,��
2019/04/16,10:50,0.758,1.105,0.764,1.411,1.025,0.434,0.771,0.728,�쓌,6.1,��
2019/04/16,11:00,0.755,1.107,0.763,1.408,1.026,0.435,0.771,0.728,�쓌,4.2,��
2019/04/16,11:10,0.758,1.108,0.762,1.411,1.026,0.434,0.769,0.727,��쓌,6.4,��
2019/04/16,11:20,0.759,1.107,0.761,1.411,1.030,0.435,0.770,0.728,��쓌,6.6,��
2019/04/16,11:30,0.758,1.108,0.761,1.410,1.027,0.434,0.771,0.726,��쓌,7.6,��
2019/04/16,11:40,0.760,1.109,0.763,1.412,1.025,0.435,0.771,0.728,��쓌,6.9,��
2019/04/16,11:50,0.759,1.109,0.762,1.413,1.029,0.435,0.769,0.726,�쓌,7.0,��
2019/04/16,12:00,0.760,1.113,0.763,1.415,1.028,0.434,0.770,0.727,�쓌,5.4,��
2019/04/16,12:10,0.759,1.109,0.764,1.412,1.031,0.435,0.771,0.727,�쓌,6.6,��
2019/04/16,12:20,0.758,1.112,0.764,1.414,1.030,0.436,0.770,0.728,�쓌,5.3,��
2019/04/16,12:30,0.758,1.112,0.763,1.417,1.030,0.435,0.769,0.728,��쓌,6.5,��
2019/04/16,12:40,0.761,1.111,0.762,1.418,1.030,0.435,0.772,0.729,��쓌,7.5,��
2019/04/16,12:50,0.760,1.112,0.765,1.416,1.031,0.434,0.770,0.727,��쓌,7.6,��
2019/04/16,13:00,0.761,1.113,0.765,1.413,1.032,0.437,0.770,0.728,��쓌,8.6,��
2019/04/16,13:10,0.759,1.112,0.764,1.416,1.032,0.435,0.769,0.729,��쓌,7.8,��
2019/04/16,13:20,0.762,1.110,0.765,1.416,1.033,0.434,0.769,0.729,��쓌,8.2,��
2019/04/16,13:30,0.760,1.107,0.764,1.418,1.032,0.436,0.770,0.727,��쓌,7.8,��
2019/04/16,13:40,0.760,1.114,0.764,1.417,1.033,0.436,0.770,0.728,��쓌,7.5,��
2019/04/16,13:50,0.760,1.108,0.763,1.418,1.033,0.436,0.772,0.726,��쓌,8.0,��
2019/04/16,14:00,0.761,1.109,0.764,1.420,1.035,0.434,0.771,0.729,��쓌,7.7,��
2019/04/16,14:10,0.761,1.112,0.764,1.417,1.034,0.438,0.771,0.727,��쓌,7.2,��
2019/04/16,14:20,0.762,1.110,0.763,1.419,1.034,0.436,0.769,0.728,��쓌,9.0,��
2019/04/16,14:30,0.761,1.111,0.766,1.420,1.034,0.438,0.769,0.728,��쓌,8.4,��
2019/04/16,14:40,0.760,1.111,0.765,1.419,1.032,0.436,0.769,0.729,��쓌,7.5,��
2019/04/16,14:50,0.761,1.109,0.766,1.419,1.035,0.437,0.771,0.728,��쓌,8.5,��
2019/04/16,15:00,0.760,1.115,0.765,1.418,1.034,0.438,0.770,0.728,��쓌,8.7,��
2019/04/16,15:10,0.760,1.111,0.765,1.415,1.034,0.437,0.773,0.730,��쓌,8.6,��
2019/04/16,15:20,0.762,1.114,0.765,1.414,1.036,0.438,0.771,0.728,��,7.8,��
2019/04/16,15:30,0.761,1.116,0.765,1.415,1.036,0.438,0.768,0.728,��쓌,7.8,��
2019/04/16,15:40,0.760,1.116,0.765,1.414,1.036,0.438,0.770,0.727,��쓌,6.9,��
2019/04/16,15:50,0.761,1.114,0.765,1.415,1.036,0.439,0.770,0.727,��쓌,6.4,��
2019/04/16,16:00,0.763,1.115,0.764,1.416,1.034,0.438,0.770,0.727,��쓌,7.1,��
2019/04/16,16:10,0.761,1.116,0.767,1.414,1.035,0.439,0.771,0.728,��쓌,6.5,��
2019/04/16,16:20,0.762,1.117,0.767,1.416,1.035,0.438,0.771,0.728,��쓌,6.0,��
2019/04/16,16:30,0.761,1.116,0.765,1.414,1.035,0.437,0.771,0.728,��쓌,7.3,��
2019/04/16,16:40,0.758,1.116,0.765,1.414,1.035,0.439,0.772,0.729,��쓌,6.3,��
2019/04/16,16:50,0.760,1.120,0.766,1.415,1.033,0.438,0.770,0.729,��쓌,7.0,��
2019/04/16,17:00,0.760,1.119,0.767,1.414,1.035,0.439,0.770,0.729,��,5.6,��
2019/04/16,17:10,0.761,1.119,0.766,1.415,1.035,0.440,0.770,0.730,��,5.3,��
2019/04/16,17:20,0.761,1.120,0.767,1.417,1.034,0.437,0.771,0.730,��쓌,6.5,��
2019/04/16,17:30,0.762,1.123,0.764,1.417,1.033,0.438,0.769,0.732,��,5.9,��
2019/04/16,17:40,0.763,1.119,0.768,1.417,1.032,0.438,0.770,0.730,��,5.3,��
2019/04/16,17:50,0.761,1.115,0.767,1.416,1.035,0.439,0.769,0.733,��,5.5,��
2019/04/16,18:00,0.762,1.120,0.768,1.413,1.036,0.440,0.770,0.731,��,4.8,��
2019/04/16,18:10,0.763,1.120,0.768,1.417,1.037,0.439,0.770,0.730,��쐼,3.1,��
2019/04/16,18:20,0.764,1.120,0.770,1.416,1.036,0.438,0.769,0.730,��쐼,2.0,��
2019/04/16,18:30,0.763,1.117,0.768,1.418,1.036,0.439,0.769,0.732,��쐼,1.5,��
2019/04/16,18:40,0.763,1.117,0.769,1.419,1.038,0.438,0.772,0.731,�쐼,1.4,��
2019/04/16,18:50,0.763,1.118,0.768,1.416,1.036,0.436,0.772,0.730,��,0.9,��
2019/04/16,19:00,0.760,1.119,0.767,1.416,1.036,0.438,0.770,0.730,�쐼,1.1,��
2019/04/16,19:10,0.763,1.119,0.769,1.418,1.040,0.438,0.772,0.730,��쓌,1.4,��
2019/04/16,19:20,0.762,1.116,0.767,1.421,1.036,0.438,0.771,0.731,��,2.0,��
2019/04/16,19:30,0.764,1.115,0.768,1.418,1.036,0.438,0.770,0.730,��쐼,1.7,��
2019/04/16,19:40,0.765,1.117,0.769,1.416,1.034,0.440,0.772,0.731,��쓌,2.8,��
2019/04/16,19:50,0.761,1.117,0.768,1.419,1.034,0.438,0.771,0.731,��,3.7,��
2019/04/16,20:00,0.762,1.115,0.769,1.417,1.036,0.438,0.770,0.732,��,4.3,��
2019/04/16,20:10,0.762,1.116,0.770,1.420,1.035,0.438,0.771,0.730,��,5.2,��
2019/04/16,20:20,0.762,1.117,0.769,1.420,1.036,0.438,0.771,0.731,��,5.6,��
2019/04/16,20:30,0.761,1.116,0.770,1.417,1.035,0.437,0.772,0.731,��쐼,5.1,��
2019/04/16,20:40,0.762,1.116,0.767,1.417,1.036,0.437,0.770,0.731,��쐼,4.8,��
2019/04/16,20:50,0.763,1.116,0.768,1.417,1.035,0.437,0.772,0.730,��쐼,5.0,��
2019/04/16,21:00,0.762,1.117,0.768,1.419,1.037,0.439,0.772,0.730,��쐼,4.8,��
2019/04/16,21:10,0.762,1.116,0.767,1.420,1.036,0.437,0.771,0.731,��쐼,3.7,��
2019/04/16,21:20,0.760,1.116,0.768,1.419,1.037,0.437,0.772,0.729,��쐼,3.6,��
2019/04/16,21:30,0.763,1.115,0.769,1.417,1.036,0.437,0.771,0.730,��쐼,3.8,��
2019/04/16,21:40,0.761,1.114,0.768,1.419,1.037,0.437,0.770,0.731,�쐼,3.5,��
2019/04/16,21:50,0.761,1.113,0.765,1.419,1.036,0.437,0.771,0.731,��쐼,4.2,��
2019/04/16,22:00,0.762,1.115,0.770,1.419,1.037,0.436,0.772,0.729,�쐼,3.4,��
2019/04/16,22:10,0.760,1.115,0.768,1.421,1.034,0.438,0.771,0.730,�쐼,2.9,��
2019/04/16,22:20,0.762,1.115,0.767,1.420,1.036,0.437,0.773,0.731,���쐼,3.1,��
2019/04/16,22:30,0.762,1.114,0.769,1.420,1.037,0.437,0.771,0.731,���쐼,3.5,��
2019/04/16,22:40,0.761,1.116,0.768,1.417,1.036,0.436,0.772,0.730,�쐼,2.9,��
2019/04/16,22:50,0.762,1.115,0.768,1.418,1.035,0.437,0.770,0.730,�쐼,2.6,��
2019/04/16,23:00,0.760,1.115,0.766,1.419,1.034,0.437,0.770,0.731,�쐼,2.6,��
2019/04/16,23:10,0.762,1.115,0.767,1.418,1.036,0.438,0.771,0.730,���쐼,2.6,��
2019/04/16,23:20,0.761,1.114,0.767,1.419,1.036,0.437,0.771,0.730,���쐼,2.6,��
2019/04/16,23:30,0.761,1.112,0.768,1.415,1.035,0.437,0.771,0.730,�쐼,2.2,��
2019/04/16,23:40,0.764,1.112,0.767,1.417,1.034,0.436,0.773,0.730,�쐼,4.5,��
2019/04/16,23:50,0.762,1.111,0.768,1.417,1.036,0.436,0.770,0.730,�쐼,4.6,��
